Вернуться в каталог

THORAD DELTA 1 DEB

АктивенLEO
NORAD 8153·DEBRIS·🇺🇸 United States

Запущен Nov 15, 1974 с Vandenberg Space Force Base

Loading…

Ближайшие Пролёты (ближайшие 24 часа)

TLE

СвежийSource: Space-Track

Эпоха: Sep 14, 2026, 13:54 UTC

1 08153U 74089T   26257.57958522 -.00000096  00000-0 -59143-3 0  9992
2 08153 100.9098 284.2557 0282864 189.8784 324.6833 12.09320252289109

Отслеживайте THORAD DELTA 1 DEB в реальном времени с AllMySat

Download on the App Store